EW7906 Weather Reports


Display with metric or nautical units.
time (UTC)temp
F
wind
direction
speed
MPH
gust
MPH
rain 1hr
in
rain 24hr
in
rain mn
in
humidity
%
barometer
mb
20260506214453 96 322 6.0 14.0 0.00 0.00 0.00 100 1011.3
20260506213953 97 11 5.0 16.0 0.00 0.00 0.00 100 1011.4
20260506213453 96 358 7.0 16.0 0.00 0.00 0.00 100 1011.3
20260506212952 96 30 5.0 13.0 0.00 0.00 0.00 100 1011.3
20260506212452 97 33 7.0 13.0 0.00 0.00 0.00 100 1011.3
20260506211952 96 2 8.0 13.0 0.00 0.00 0.00 100 1011.4
20260506211452 97 358 4.0 14.0 0.00 0.00 0.00 100 1011.4
20260506210953 97 40 6.0 14.0 0.00 0.00 0.00 100 1011.5
20260506210452 97 7 7.0 18.0 0.00 0.00 0.00 100 1011.5
20260506205953 98 319 9.0 18.0 0.00 0.00 0.00 100 1011.6
20260506205453 97 329 6.0 14.0 0.00 0.00 0.00 100 1011.8
20260506205225 97 5 7.0 14.0 0.00 0.00 0.00 100 1011.6
20260506204452 97 298 9.0 15.0 0.00 0.00 0.00 100 1011.7
20260506203953 98 310 6.0 15.0 0.00 0.00 0.00 100 1011.8
20260506203724 98 21 5.0 12.0 0.00 0.00 0.00 100 1011.8
20260506202953 98 358 5.0 11.0 0.00 0.00 0.00 100 1011.7
20260506202452 99 358 4.0 12.0 0.00 0.00 0.00 100 1011.6
20260506201952 99 40 6.0 14.0 0.00 0.00 0.00 100 1011.5
20260506201452 99 344 6.0 15.0 0.00 0.00 0.00 100 1011.6
20260506200953 99 358 8.0 15.0 0.00 0.00 0.00 100 1011.5
20260506200453 100 355 7.0 14.0 0.00 0.00 0.00 100 1011.5
20260506195953 100 67 6.0 18.0 0.00 0.00 0.00 100 1011.3
20260506195451 99 345 7.0 18.0 0.00 0.00 0.00 100 1011.4
20260506194950 99 29 4.0 16.0 0.00 0.00 0.00 100 1011.2
20260506194450 99 352 7.0 16.0 0.00 0.00 0.00 100 1011.2
20260506194221 99 42 7.0 15.0 0.00 0.00 0.00 100 1011.1
20260506193449 99 2 8.0 16.0 0.00 0.00 0.00 100 1011.0
20260506193221 99 37 10.0 16.0 0.00 0.00 0.00 100 1011.1
20260506192450 100 344 4.0 15.0 0.00 0.00 0.00 100 1011.1
20260506192221 99 358 6.0 15.0 0.00 0.00 0.00 100 1011.2
20260506191451 99 22 8.0 15.0 0.00 0.00 0.00 100 1011.2
20260506190950 100 358 9.0 15.0 0.00 0.00 0.00 100 1011.2
20260506190450 101 16 1.0 8.0 0.00 0.00 0.00 100 1011.2
20260506185948 101 11 4.0 8.0 0.00 0.00 0.00 100 1011.4
20260506185448 101 303 0.0 9.0 0.00 0.00 0.00 100 1011.3
20260506184947 101 16 5.0 10.0 0.00 0.00 0.00 100 1011.2
20260506184444 102 338 4.0 10.0 0.00 0.00 0.00 100 1011.2
20260506183943 102 262 4.0 8.0 0.00 0.00 0.00 100 1011.1
20260506183443 101 345 5.0 8.0 0.00 0.00 0.00 100 1011.1
20260506183214 102 2 0.0 8.0 0.00 0.00 0.00 100 1011.0
20260506182443 103 70 5.0 8.0 0.00 0.00 0.00 100 1011.0
20260506182214 102 358 6.0 8.0 0.00 0.00 0.00 100 1011.0
20260506181442 102 317 5.0 8.0 0.00 0.00 0.00 100 1011.1
20260506180949 102 7 3.0 6.0 0.00 0.00 0.00 100 1011.1
20260506180943 102 1 2.0 8.0 0.00 0.00 0.00 100 1011.1
20260506175943 102 326 1.0 8.0 0.00 0.00 0.00 100 1010.9
20260506175443 101 5 3.0 8.0 0.00 0.00 0.00 100 1010.8
20260506174943 101 32 2.0 6.0 0.00 0.00 0.00 100 1010.8
20260506174443 101 315 0.0 7.0 0.00 0.00 0.00 100 1010.8
20260506173944 101 67 0.0 8.0 0.00 0.00 0.00 100 1010.7
20260506173443 101 46 2.0 9.0 0.00 0.00 0.00 100 1010.7
20260506172943 100 149 3.0 9.0 0.00 0.00 0.00 100 1010.7
20260506172444 100 326 4.0 9.0 0.00 0.00 0.00 100 1010.8
20260506171945 100 36 2.0 9.0 0.00 0.00 0.00 100 1010.9
20260506171445 99 0 1.0 10.0 0.00 0.00 0.00 100 1010.9
20260506171216 99 358 1.0 10.0 0.00 0.00 0.00 100 1010.8
20260506170442 98 358 6.0 13.0 0.00 0.00 0.00 100 1010.9
20260506170212 98 40 4.0 13.0 0.00 0.00 0.00 100 1010.8
20260506165712 98 49 0.0 10.0 0.00 0.00 0.00 100 1010.9
20260506164939 98 35 3.0 11.0 0.00 0.00 0.00 100 1010.9
20260506164439 97 45 4.0 11.0 0.00 0.00 0.00 100 1011.1
20260506163939 96 82 1.0 13.0 0.00 0.00 0.00 100 1011.6
20260506163438 96 70 4.0 13.0 0.00 0.00 0.00 100 1011.6
20260506162931 97 52 4.0 10.0 0.00 0.00 0.00 100 1011.6
20260506162702 97 358 5.0 12.0 0.00 0.00 0.00 100 1011.5
20260506161925 95 326 7.0 14.0 0.00 0.00 0.00 100 1011.6
20260506161425 95 343 6.0 15.0 0.00 0.00 0.00 100 1011.8
20260506161151 95 357 4.0 15.0 0.00 0.00 0.00 100 1012.5
20260506160651 95 4 5.0 17.0 0.00 0.00 0.00 100 1012.4
20260506155921 95 317 9.0 17.0 0.00 0.00 0.00 100 1012.3
20260506155421 95 1 8.0 14.0 0.00 0.00 0.00 100 1012.1
20260506154921 95 340 1.0 15.0 0.00 0.00 0.00 100 1012.2
20260506154418 96 43 6.0 15.0 0.00 0.00 0.00 100 1012.1
20260506153917 96 49 5.0 17.0 0.00 0.00 0.00 100 1011.9
20260506153414 96 358 7.0 18.0 0.00 0.00 0.00 100 1011.9
20260506152913 96 1 9.0 18.0 0.00 0.00 0.00 100 1011.7
20260506152643 97 340 6.0 14.0 0.00 0.00 0.00 100 1011.7
20260506151912 97 18 6.0 14.0 0.00 0.00 0.00 100 1011.4
20260506151413 97 329 7.0 24.0 0.00 0.00 0.00 100 1011.1
20260506150913 98 348 9.0 24.0 0.00 0.00 0.00 100 1011.2
20260506150643 99 340 10.0 15.0 0.00 0.00 0.00 100 1011.1
20260506145914 101 154 0.0 0.0 0.00 0.00 0.00 100 1010.7
20260506145412 101 154 0.0 4.0 0.00 0.00 0.00 100 1010.4
20260506144911 101 154 0.0 6.0 0.00 0.00 0.00 100 1010.2
20260506144411 101 146 0.0 6.0 0.00 0.00 0.00 100 1009.7
20260506143901 101 75 1.0 7.0 0.00 0.00 0.00 100 1009.5
20260506143401 101 130 2.0 7.0 0.00 0.00 0.00 100 1009.5
20260506142905 101 109 0.0 7.0 0.00 0.00 0.00 100 1009.3
20260506142901 101 109 0.0 6.0 0.00 0.00 0.00 100 1009.4
20260506142355 102 151 0.0 7.0 0.00 0.00 0.00 100 1009.1
20260506141346 102 151 0.0 6.0 0.00 0.00 0.00 100 1009.0
20260506141108 101 168 2.0 6.0 0.00 0.00 0.00 100 1009.1
20260506140338 101 149 0.0 4.0 0.00 0.00 0.00 100 1009.3
20260506135829 100 149 0.0 4.0 0.00 0.00 0.00 100 1009.5
20260506135325 101 123 0.0 0.0 0.00 0.00 0.00 100 1009.6
20260506134819 100 123 0.0 0.0 0.00 0.00 0.00 100 1009.3
20260506134545 100 123 0.0 4.0 0.00 0.00 0.00 100 1009.0
20260506133814 100 123 0.0 4.0 0.00 0.00 0.00 100 1009.0
20260506133258 100 150 0.0 0.0 0.00 0.00 0.00 2 1009.1
20260506132747 100 150 0.0 5.0 0.00 0.00 0.00 2 1009.0
20260506132245 100 150 0.0 5.0 0.00 0.00 0.00 3 1008.9
20260506131744 100 105 0.0 5.0 0.00 0.00 0.00 4 1009.0
20260506131243 100 160 1.0 5.0 0.00 0.00 0.00 4 1008.8
20260506130740 100 115 1.0 5.0 0.00 0.00 0.00 4 1008.8
20260506130233 100 133 1.0 6.0 0.00 0.00 0.00 5 1008.8
20260506125727 100 98 2.0 4.0 0.00 0.00 0.00 6 1008.8
20260506125213 100 136 0.0 0.0 0.00 0.00 0.00 7 1008.7
20260506124939 100 136 0.0 3.0 0.00 0.00 0.00 10 1008.6
20260506124202 100 136 0.0 3.0 0.00 0.00 0.00 15 1008.5
20260506123658 100 185 0.0 0.0 0.00 0.00 0.00 22 1008.5
20260506123157 100 185 0.0 0.0 0.00 0.00 0.00 23 1008.5
20260506122657 100 185 0.0 0.0 0.00 0.00 0.00 22 1008.5
20260506122153 100 185 0.0 0.0 0.00 0.00 0.00 20 1008.5
20260506121924 100 185 0.0 0.0 0.00 0.00 0.00 19 1008.5
20260506121143 100 185 0.0 0.0 0.00 0.00 0.00 17 1008.5
20260506120643 100 185 0.0 0.0 0.00 0.00 0.00 16 1008.5
20260506120141 100 185 0.0 0.0 0.00 0.00 0.00 14 1008.6
20260506115847 100 185 0.0 0.0 0.00 0.00 0.00 12 1008.5
20260506115108 100 185 0.0 0.0 0.00 0.00 0.00 11 1008.4
20260506114837 100 185 0.0 0.0 0.00 0.00 0.00 8 1008.3
20260506114102 100 185 0.0 0.0 0.00 0.00 0.00 7 1008.4
20260506113556 100 185 0.0 0.0 0.00 0.00 0.00 6 1008.5
20260506113552 100 185 0.0 0.0 0.00 0.00 0.00 7 1008.5
20260506112813 100 185 0.0 0.0 0.00 0.00 0.00 6 1008.6
20260506112041 100 185 0.0 0.0 0.00 0.00 0.00 6 1008.6
20260506111531 100 185 0.0 0.0 0.00 0.00 0.00 6 1008.5
20260506111231 100 185 0.0 0.0 0.00 0.00 0.00 6 1008.5
20260506110723 100 185 0.0 0.0 0.00 0.00 0.00 5 1008.5
20260506105925 100 185 0.0 0.0 0.00 0.00 0.00 5 1008.5
20260506105646 100 185 0.0 0.0 0.00 0.00 0.00 5 1008.5
20260506104910 100 185 0.0 0.0 0.00 0.00 0.00 5 1008.4
20260506104355 100 185 0.0 0.0 0.00 0.00 0.00 4 1008.4
20260506103848 100 185 0.0 0.0 0.00 0.00 0.00 4 1008.3
20260506103552 100 185 0.0 0.0 0.00 0.00 0.00 4 1008.2
20260506102819 100 185 0.0 0.0 0.00 0.00 0.00 4 1008.2
20260506102319 100 185 0.0 0.0 0.00 0.00 0.00 4 1008.2
20260506102030 100 185 0.0 4.0 0.00 0.00 0.00 4 1008.2
20260506101234 100 185 0.0 4.0 0.00 0.00 0.00 5 1008.2
20260506101000 100 139 0.0 2.0 0.00 0.00 0.00 5 1008.1
20260506100208 100 232 0.0 2.0 0.00 0.00 0.00 7 1008.0
20260506095659 100 232 0.0 6.0 0.00 0.00 0.00 7 1008.0
20260506095156 100 232 0.0 6.0 0.00 0.00 0.00 9 1007.9
20260506094648 100 168 1.0 7.0 0.00 0.00 0.00 10 1007.8
20260506094148 100 139 3.0 7.0 0.00 0.00 0.00 9 1007.8
20260506093646 100 195 1.0 5.0 0.00 0.00 0.00 7 1007.7
20260506093416 100 187 1.0 5.0 0.00 0.00 0.00 5 1007.7
20260506092644 100 168 0.0 5.0 0.00 0.00 0.00 3 1007.7
20260506092144 100 180 0.0 1.0 0.00 0.00 0.00 2 1007.6
20260506091643 100 180 0.0 8.0 0.00 0.00 0.00 2 1007.5
20260506091143 100 180 1.0 8.0 0.00 0.00 0.00 1 1007.4
20260506090915 100 160 0.0 8.0 0.00 0.00 0.00 1 1007.3
20260506090127 100 133 4.0 8.0 0.00 0.00 0.00 100 1007.2
20260506085605 100 109 0.0 0.0 0.00 0.00 0.00 100 1007.2
20260506085039 100 109 0.0 5.0 0.00 0.00 0.00 100 1007.2
20260506084528 100 109 0.0 5.0 0.00 0.00 0.00 100 1007.3
20260506084022 100 118 2.0 9.0 0.00 0.00 0.00 100 1007.2
20260506083514 100 164 3.0 9.0 0.00 0.00 0.00 100 1007.2
20260506083010 100 156 2.0 10.0 0.00 0.00 0.00 100 1007.2
20260506082509 100 194 4.0 12.0 0.00 0.00 0.00 100 1007.2
20260506082009 100 175 4.0 12.0 0.00 0.00 0.00 100 1007.2
20260506081506 100 172 3.0 6.0 0.00 0.00 0.00 100 1007.2
20260506080959 100 42 0.0 7.0 0.00 0.00 0.00 100 1007.2
20260506080450 100 154 2.0 7.0 0.00 0.00 0.00 100 1007.2
20260506073445 100 54 4.0 9.0 0.00 0.00 0.00 100 1007.5
20260506072944 100 146 0.0 9.0 0.00 0.00 0.00 100 1007.6
20260506072715 100 146 4.0 11.0 0.00 0.00 0.00 100 1007.6
20260506071944 100 80 0.0 11.0 0.00 0.00 0.00 100 1007.7
20260506071444 100 150 3.0 12.0 0.00 0.00 0.00 100 1007.7
20260506070944 100 156 4.0 12.0 0.00 0.00 0.00 100 1007.7
20260506070443 100 139 2.0 11.0 0.00 0.00 0.00 100 1007.7
20260506062213 100 149 5.0 9.0 0.00 0.00 0.00 100 1007.8
20260506061442 100 127 4.0 8.0 0.00 0.00 0.00 100 1007.9
20260506060942 100 123 0.0 12.0 0.00 0.00 0.00 100 1007.6
20260506060443 100 149 4.0 12.0 0.00 0.00 0.00 100 1007.5
20260506050914 100 170 4.0 7.0 0.00 0.00 0.00 100 1007.7
20260506050414 100 109 1.0 6.0 0.00 0.00 0.00 100 1007.7
20260506044859 100 137 2.0 6.0 0.00 0.00 0.00 100 1007.7
20260506044357 100 135 0.0 6.0 0.00 0.00 0.00 100 1007.6
20260506044128 100 189 0.0 7.0 0.00 0.00 0.00 100 1007.6
20260506043354 100 118 4.0 8.0 0.00 0.00 0.00 100 1007.7
20260506042850 100 170 4.0 8.0 0.00 0.00 0.00 100 1007.7
20260506042345 100 146 0.0 9.0 0.00 0.00 0.00 100 1007.7
20260506041840 100 136 3.0 9.0 0.00 0.00 0.00 100 1007.6
20260506041336 100 133 0.0 6.0 0.00 0.00 0.00 100 1007.6
20260506041323 100 130 2.0 6.0 0.00 0.00 0.00 100 1007.6
20260506040321 100 168 0.0 8.0 0.00 0.00 0.00 100 1007.5
20260506035821 100 154 3.0 8.0 0.00 0.00 0.00 100 1007.5
20260506035321 100 194 4.0 7.0 0.00 0.00 0.00 100 1007.5
20260506034822 100 143 2.0 10.0 0.00 0.00 0.00 100 1007.4
20260506034304 100 147 5.0 10.0 0.00 0.00 0.00 100 1007.3
20260506034035 100 109 4.0 6.0 0.00 0.00 0.00 100 1007.2
20260506033304 100 127 2.0 8.0 0.00 0.00 0.00 100 1007.4
20260506032805 101 143 3.0 9.0 0.00 0.00 0.00 100 1007.4
20260506032255 100 150 0.0 9.0 0.00 0.00 0.00 100 1007.3
20260506031750 101 191 2.0 9.0 0.00 0.00 0.00 100 1007.3
20260506031250 101 158 5.0 9.0 0.00 0.00 0.00 100 1007.2
20260506030750 101 129 1.0 7.0 0.00 0.00 0.00 100 1007.2
20260506030517 101 149 0.0 7.0 0.00 0.00 0.00 100 1007.1
20260506025744 101 127 1.0 6.0 0.00 0.00 0.00 100 1007.1
20260506025244 101 163 0.0 6.0 0.00 0.00 0.00 100 1006.9
20260506024743 101 106 0.0 3.0 0.00 0.00 0.00 100 1006.8
20260506024243 101 106 0.0 0.0 0.00 0.00 0.00 100 1006.7
20260506023739 101 106 0.0 0.0 0.00 0.00 0.00 100 1006.7
20260506023229 101 106 0.0 1.0 0.00 0.00 0.00 100 1006.5
20260506022718 101 106 0.0 3.0 0.00 0.00 0.00 100 1006.3
20260506022217 101 106 0.0 3.0 0.00 0.00 0.00 100 1006.2
20260506021718 101 140 0.0 0.0 0.00 0.00 0.00 100 1006.2
20260506021214 101 140 0.0 0.0 0.00 0.00 0.00 100 1006.1
20260506020712 101 140 0.0 1.0 0.00 0.00 0.00 100 1006.1
20260506020213 101 140 0.0 4.0 0.00 0.00 0.00 100 1005.8
20260506015713 101 140 1.0 4.0 0.00 0.00 0.00 100 1005.7
20260506015208 101 156 0.0 3.0 0.00 0.00 0.00 100 1005.6
20260506014703 101 167 0.0 5.0 0.00 0.00 0.00 100 1005.7
20260506014201 101 167 1.0 5.0 0.00 0.00 0.00 100 1005.6
20260506013918 101 147 0.0 0.0 0.00 0.00 0.00 100 1005.6
20260506013123 101 147 0.0 0.0 0.00 0.00 0.00 100 1005.6
20260506012616 101 147 0.0 5.0 0.00 0.00 0.00 100 1005.6
20260506012111 101 147 0.0 5.0 0.00 0.00 0.00 100 1005.5
20260506011556 101 125 0.0 5.0 0.00 0.00 0.00 100 1005.5
20260506011056 101 151 3.0 5.0 0.00 0.00 0.00 100 1005.6
20260506010554 101 153 0.0 0.0 0.00 0.00 0.00 100 1005.6
20260506010049 101 153 0.0 0.0 0.00 0.00 0.00 100 1005.6
20260506005535 101 153 0.0 0.0 0.00 0.00 0.00 100 1005.6
20260506005034 101 153 0.0 0.0 0.00 0.00 0.00 100 1005.6
20260506004535 102 153 0.0 0.0 0.00 0.00 0.00 100 1005.5
20260506004033 102 153 0.0 0.0 0.00 0.00 0.00 100 1005.6
20260506003534 102 153 0.0 0.0 0.00 0.00 0.00 100 1005.6
20260506003019 102 153 0.0 6.0 0.00 0.00 0.00 100 1005.5
20260506002514 102 153 0.0 6.0 0.00 0.00 0.00 100 1005.5
20260506002245 102 102 0.0 2.0 0.00 0.00 0.00 100 1005.6
20260506001503 102 119 0.0 2.0 0.00 0.00 0.00 100 1005.6
20260506001003 102 119 0.0 4.0 0.00 0.00 0.00 100 1005.5
20260506000455 102 119 0.0 6.0 0.00 0.00 0.00 100 1005.5
20260505235943 102 160 1.0 6.0 0.00 0.00 0.00 100 1005.5
20260505235443 102 102 2.0 6.0 0.00 0.00 0.00 100 1005.4
20260505235149 102 161 1.0 9.0 0.00 0.00 0.00 100 1005.3
20260505234404 102 205 4.0 10.0 0.00 0.00 0.00 100 1005.2
20260505234135 102 167 4.0 10.0 0.00 0.00 0.00 100 1005.1
20260505233635 102 201 6.0 10.0 0.00 0.00 0.00 100 1005.1
20260505232904 102 158 5.0 11.0 0.00 0.00 0.00 100 1005.1
20260505232402 102 177 6.0 11.0 0.00 0.00 0.00 100 1005.2
20260505231902 102 216 2.0 9.0 0.00 0.00 0.00 100 1005.2
20260505231402 102 168 5.0 10.0 0.00 0.00 0.00 100 1005.1
20260505230901 103 178 5.0 12.0 0.00 0.00 0.00 100 1005.1
20260505230400 102 208 4.0 12.0 0.00 0.00 0.00 100 1005.1
20260505230130 103 156 2.0 9.0 0.00 0.00 0.00 100 1005.1
20260505225402 103 180 2.0 11.0 0.00 0.00 0.00 100 1004.9
20260505225358 103 139 4.0 10.0 0.00 0.00 0.00 100 1005.0
20260505224356 103 160 3.0 11.0 0.00 0.00 0.00 100 1005.0
20260505223853 103 201 3.0 9.0 0.00 0.00 0.00 100 1004.9
20260505223353 103 160 5.0 10.0 0.00 0.00 0.00 100 1004.9
20260505222853 103 170 6.0 10.0 0.00 0.00 0.00 100 1004.9
20260505222353 103 182 4.0 14.0 0.00 0.00 0.00 100 1004.8
20260505221853 103 195 4.0 14.0 0.00 0.00 0.00 100 1004.9
20260505221353 103 217 5.0 11.0 0.00 0.00 0.00 100 1005.0
20260505220852 103 191 5.0 11.0 0.00 0.00 0.00 100 1005.0
20260505220353 103 156 3.0 10.0 0.00 0.00 0.00 100 1005.0
20260505215857 103 203 0.0 10.0 0.00 0.00 0.00 100 1005.0
20260505215851 102 157 5.0 10.0 0.00 0.00 0.00 100 1005.0
20260505215121 103 198 4.0 11.0 0.00 0.00 0.00 100 1005.1